Retour au catalogue

METEOR 1-15

ActifMétéoPO
NORAD 6659·PAYLOAD·🇷🇺 Russia

Lancé May 29, 1973 depuis Plesetsk Cosmodrome

Loading…

Prochains Passages (prochaines 24 heures)

TLE

FraisSource: Space-Track

Époque: Sep 14, 2026, 04:45 UTC

1 06659U 73034A   26257.19805482  .00000215  00000-0  11318-3 0  9997
2 06659  81.1908 158.8275 0027960 151.4575 208.8135 14.10559896739973

Suivez METEOR 1-15 en temps réel avec AllMySat

Download on the App Store